HS Precip Hour 24hr 72hr 28day Wind Wind Wind Vel Dir Time Batt Logger 24hr
24hr 24hr Sig Gauge Precip RunTot RunTot Speed Dir Dir 3sec 3sec 3sec Volts Intrnl RunTot
Date Time Ta Ta Max Ta Min RH% HS cm Qual Total mm mm Precip Precip Precip kph deg Gust Gust Gust Temp Precip
26-08-30 00:00 9.9 15.0 4.3 35 -0 0 73 0.0 0 0 0 ~ ~ ~ ~ ~ ~ ~ ~ 0.0
26-08-30 01:00 10.2 15.0 4.3 35 -0 0 73 0.0 0 0 0 ~ ~ ~ ~ ~ ~ ~ ~ 0.0
26-08-30 02:00 10.2 15.0 4.3 35 -0 0 73 0.0 0 0 0 ~ ~ ~ ~ ~ ~ ~ ~ 0.0
26-08-30 03:00 10.1 15.0 4.3 35 -0 0 73 0.1 0 0 0 ~ ~ ~ ~ ~ ~ ~ ~ 0.1
26-08-30 04:00 10.1 15.0 4.3 35 -0 0 73 0.0 0 0 0 ~ ~ ~ ~ ~ ~ ~ ~ 0.1
26-08-30 05:00 9.9 15.0 4.3 35 -0 0 73 0.0 0 0 0 ~ ~ ~ ~ ~ ~ ~ ~ 0.1
26-08-30 06:00 9.8 15.0 4.3 35 -0 0 73 0.0 0 0 0 ~ ~ ~ ~ ~ ~ ~ ~ 0.1
26-08-30 07:00 9.7 15.0 4.3 35 -0 0 73 0.0 0 0 0 ~ ~ ~ ~ ~ ~ ~ ~ 0.1
26-08-30 08:00 9.8 9.9 9.5 35 -0 0 73 0.1 0 0 0 ~ ~ ~ ~ ~ ~ ~ ~ 0.2
26-08-30 09:00 9.9 9.9 9.5 35 -0 0 73 0.0 0 0 0 ~ ~ ~ ~ ~ ~ ~ ~ 0.2
26-08-30 10:00 10.1 10.2 9.5 35 -0 0 73 0.0 0 0 0 ~ ~ ~ ~ ~ ~ ~ ~ 0.2
26-08-30 11:00 10.9 10.9 9.5 35 -0 0 73 0.0 0 0 0 ~ ~ ~ ~ ~ ~ ~ ~ 0.2
26-08-30 12:00 11.0 11.2 9.5 36 -0 0 73 0.0 0 0 0 ~ ~ ~ ~ ~ ~ ~ ~ 0.2
26-08-30 13:00 11.1 11.3 9.5 35 -0 0 73 0.0 0 0 0 ~ ~ ~ ~ ~ ~ ~ ~ 0.2
26-08-30 14:00 11.0 11.3 9.5 35 -0 0 73 0.0 0 0 0 ~ ~ ~ ~ ~ ~ ~ ~ 0.2
26-08-30 15:00 10.9 11.3 9.5 35 -0 0 73 0.1 0 0 0 ~ ~ ~ ~ ~ ~ ~ ~ 0.3
26-08-30 16:00 10.9 11.3 9.5 35 -0 0 73 0.0 0 0 0 ~ ~ ~ ~ ~ ~ ~ ~ 0.3
26-08-30 17:00 11.4 11.6 9.5 35 -0 0 73 0.0 0 0 0 ~ ~ ~ ~ ~ ~ ~ ~ 0.3
26-08-30 18:00 11.1 11.6 9.5 35 -0 0 73 0.0 0 0 0 ~ ~ ~ ~ ~ ~ ~ ~ 0.3
26-08-30 19:00 11.4 11.6 9.5 35 -0 0 73 0.0 0 0 0 ~ ~ ~ ~ ~ ~ ~ ~ 0.3
26-08-30 20:00 11.0 11.6 9.5 35 -0 0 73 0.0 0 0 0 ~ ~ ~ ~ ~ ~ ~ ~ 0.3
26-08-30 21:00 10.5 11.6 9.5 35 -0 0 73 0.1 0 0 0 ~ ~ ~ ~ ~ ~ ~ ~ 0.4
26-08-30 22:00 10.3 11.6 9.5 35 -0 0 73 0.0 0 0 0 ~ ~ ~ ~ ~ ~ ~ ~ 0.4
26-08-30 23:00 9.9 11.6 9.5 35 -0 0 73 0.0 0 0 0 ~ ~ ~ ~ ~ ~ ~ ~ 0.4
26-08-31 00:00 8.8 11.6 8.4 35 -0 0 73 0.0 0 0 0 ~ ~ ~ ~ ~ ~ ~ ~ 0.0
26-08-31 01:00 9.0 11.6 7.8 35 -0 0 73 0.0 0 0 0 ~ ~ ~ ~ ~ ~ ~ ~ 0.0
26-08-31 02:00 9.3 11.6 7.8 35 -0 0 73 0.0 0 0 0 ~ ~ ~ ~ ~ ~ ~ ~ 0.0
26-08-31 03:00 9.2 11.6 7.8 35 -0 0 73 0.0 0 0 0 ~ ~ ~ ~ ~ ~ ~ ~ 0.0
26-08-31 04:00 8.6 11.6 7.8 35 -0 0 73 0.0 0 0 0 ~ ~ ~ ~ ~ ~ ~ ~ 0.0
26-08-31 05:00 8.6 11.6 7.8 35 -0 0 73 0.1 0 0 0 ~ ~ ~ ~ ~ ~ ~ ~ 0.1
26-08-31 06:00 8.4 11.6 7.8 35 -0 0 73 0.0 0 0 0 ~ ~ ~ ~ ~ ~ ~ ~ 0.1
26-08-31 07:00 8.0 11.6 7.8 35 -0 0 73 0.0 0 0 0 ~ ~ ~ ~ ~ ~ ~ ~ 0.1
26-08-31 08:00 8.1 8.3 7.4 35 -0 0 73 0.0 0 0 0 ~ ~ ~ ~ ~ ~ ~ ~ 0.1
26-08-31 09:00 10.8 11.1 7.4 36 -0 0 73 0.0 0 0 0 ~ ~ ~ ~ ~ ~ ~ ~ 0.1
26-08-31 10:00 14.1 14.2 7.4 35 -0 0 73 0.0 0 0 0 ~ ~ ~ ~ ~ ~ ~ ~ 0.1
26-08-31 11:00 13.7 14.2 7.4 35 -0 0 73 0.1 0 0 0 ~ ~ ~ ~ ~ ~ ~ ~ 0.2
26-08-31 12:00 14.8 15.0 7.4 35 -0 0 73 0.0 0 0 0 ~ ~ ~ ~ ~ ~ ~ ~ 0.2
26-08-31 13:00 16.0 16.1 7.4 36 0 0 73 0.0 0 0 0 ~ ~ ~ ~ ~ ~ ~ ~ 0.2
26-08-31 14:00 16.8 17.0 7.4 36 0 0 73 0.0 0 0 0 ~ ~ ~ ~ ~ ~ ~ ~ 0.2
26-08-31 15:00 17.4 17.4 7.4 36 0 0 73 0.0 0 0 0 ~ ~ ~ ~ ~ ~ ~ ~ 0.2
26-08-31 16:00 17.0 17.9 7.4 35 0 0 73 0.0 0 0 0 ~ ~ ~ ~ ~ ~ ~ ~ 0.2
26-08-31 17:00 15.9 17.9 7.4 35 0 0 73 0.0 0 0 0 ~ ~ ~ ~ ~ ~ ~ ~ 0.2
26-08-31 18:00 15.1 17.9 7.4 35 -0 0 73 0.0 0 0 0 ~ ~ ~ ~ ~ ~ ~ ~ 0.2
26-08-31 19:00 14.4 17.9 7.4 36 -0 0 73 0.1 0 0 0 ~ ~ ~ ~ ~ ~ ~ ~ 0.3
26-08-31 20:00 12.5 17.9 7.4 35 -0 0 73 0.0 0 0 0 ~ ~ ~ ~ ~ ~ ~ ~ 0.3
26-08-31 21:00 10.9 17.9 7.4 35 -0 0 73 0.0 0 0 0 ~ ~ ~ ~ ~ ~ ~ ~ 0.3
26-08-31 22:00 10.6 17.9 7.4 35 -0 0 73 0.0 0 0 0 ~ ~ ~ ~ ~ ~ ~ ~ 0.3
26-08-31 23:00 10.6 17.9 7.4 35 -0 0 73 0.0 0 0 0 ~ ~ ~ ~ ~ ~ ~ ~ 0.3
26-09-01 00:00 10.0 17.9 7.4 35 -0 0 73 0.0 0 0 0 ~ ~ ~ ~ ~ ~ ~ ~ 0.0
26-09-01 01:00 9.3 17.9 7.4 35 -0 0 73 0.1 0 0 0 ~ ~ ~ ~ ~ ~ ~ ~ 0.1
26-09-01 02:00 9.4 17.9 7.4 35 -0 0 73 0.0 0 0 0 ~ ~ ~ ~ ~ ~ ~ ~ 0.1
26-09-01 03:00 8.4 17.9 7.4 35 -0 0 73 0.0 0 0 0 ~ ~ ~ ~ ~ ~ ~ ~ 0.1
26-09-01 04:00 8.3 17.9 7.4 35 -0 0 73 0.0 0 0 0 ~ ~ ~ ~ ~ ~ ~ ~ 0.1
26-09-01 05:00 8.3 17.9 7.4 35 -0 0 73 0.0 0 0 0 ~ ~ ~ ~ ~ ~ ~ ~ 0.1
26-09-01 06:00 7.9 17.9 7.4 35 -0 0 73 0.0 0 0 0 ~ ~ ~ ~ ~ ~ ~ ~ 0.1
26-09-01 07:00 8.3 17.9 7.4 35 -0 0 73 0.0 0 0 0 ~ ~ ~ ~ ~ ~ ~ ~ 0.1
26-09-01 08:00 8.7 8.8 7.9 35 -0 0 73 0.0 0 0 0 ~ ~ ~ ~ ~ ~ ~ ~ 0.1
26-09-01 09:00 10.6 10.7 7.9 35 -0 0 73 0.1 0 0 0 ~ ~ ~ ~ ~ ~ ~ ~ 0.2
26-09-01 10:00 14.9 14.9 7.9 35 -0 0 73 0.0 0 0 0 ~ ~ ~ ~ ~ ~ ~ ~ 0.2
26-09-01 11:00 14.2 14.9 7.9 35 -0 0 73 0.0 0 0 0 ~ ~ ~ ~ ~ ~ ~ ~ 0.2
26-09-01 12:00 14.9 15.0 7.9 35 -0 0 73 0.0 0 0 0 ~ ~ ~ ~ ~ ~ ~ ~ 0.2
26-09-01 13:00 14.6 15.2 7.9 35 -0 0 73 0.0 0 0 0 ~ ~ ~ ~ ~ ~ ~ ~ 0.2
26-09-01 14:00 15.7 16.0 7.9 35 -0 0 73 0.0 0 0 0 ~ ~ ~ ~ ~ ~ ~ ~ 0.2
26-09-01 15:00 15.7 16.0 7.9 35 0 0 74 0.1 0 0 0 ~ ~ ~ ~ ~ ~ ~ ~ 0.3
26-09-01 16:00 14.9 16.0 7.9 35 -0 0 74 0.0 0 0 0 ~ ~ ~ ~ ~ ~ ~ ~ 0.3
26-09-01 17:00 14.4 16.0 7.9 36 -0 0 74 0.0 0 0 0 ~ ~ ~ ~ ~ ~ ~ ~ 0.3
26-09-01 18:00 13.5 16.0 7.9 35 -0 0 74 0.0 0 0 0 ~ ~ ~ ~ ~ ~ ~ ~ 0.3
26-09-01 19:00 12.5 16.0 7.9 35 -0 0 74 0.0 0 0 0 ~ ~ ~ ~ ~ ~ ~ ~ 0.3
26-09-01 20:00 12.1 16.0 7.9 35 -0 0 74 0.0 0 0 0 ~ ~ ~ ~ ~ ~ ~ ~ 0.3
26-09-01 21:00 12.0 16.0 7.9 35 -0 0 74 0.0 0 0 0 ~ ~ ~ ~ ~ ~ ~ ~ 0.3